Weather History for Crestview, FL

Change the Weather History Date:

Monday, January 14, 2013

  Actual Average Record
Temperature  
Mean Temperature 70 °F -  
Max Temperature 72 °F - - ()
Min Temperature 68 °F - - ()
Cooling Degree Days 5    
Growing Degree Days 20 (Base 50)    
Moisture  
Dew Point 69 °F    
Average Humidity 96    
Maximum Humidity 100    
Minimum Humidity 88    
Precipitation  
Precipitation 0.04 in - - ()
Sea Level Pressure  
Sea Level Pressure 30.08 in    
Wind  
Wind Speed 10 mph (SSE)    
Max Wind Speed 15 mph    
Max Gust Speed 22 mph    
Visibility 4 miles    
Events Rain    
T = Trace of Precipitation, MM = Missing Value Source: NWS Daily Summary

Daily Weather History Graph

Daily Weather History Graph

Search for Another Location

Airport:

Trip Planner

Search our weather history database for the weather conditions in past years. The results will help you decide how hot, cold, wet, or windy it might be!

Date:

Astronomy

Jan. 14, 2013 Rise Set
Actual Time 6:44 AM CST 5:06 PM CST
Civil Twilight 6:18 AM CST 5:32 PM CST
Nautical Twilight 5:48 AM CST 6:02 PM CST
Astronomical Twilight 5:19 AM CST 6:31 PM CST
Moon 8:33 AM CST (1/14) 8:33 PM CST (1/14)
Length of Visible Light 11h 14m
Length of Day
10h 22m
Waxing Crescent, 11% of the Moon is Illuminated
Jan 14
Waxing Crescent
Jan 18
First Quarter
Jan 26
Full
Feb 3
Last Quarter
Feb 10
New

Hourly Weather History & Observations

Time (CST) Temp. Dew Point Humidity Pressure Visibility Wind Dir Wind Speed Gust Speed Precip Events Conditions
12:55 AM 69.8 °F 69.4 °F 99% 30.05 in 5.0 mi South 13.8 mph - N/A   Overcast
12:58 AM 69.8 °F 69.8 °F 100% 30.05 in 5.0 mi South 11.5 mph - N/A   Overcast
1:55 AM 69.6 °F 69.3 °F 99% 30.05 in 4.0 mi South 10.4 mph - N/A   Overcast
2:07 AM 69.8 °F 69.8 °F 100% 30.06 in 2.5 mi South 9.2 mph - N/A   Overcast
2:32 AM 69.8 °F 69.8 °F 100% 30.06 in 3.0 mi South 10.4 mph - N/A   Overcast
2:55 AM 69.4 °F 69.1 °F 99% 30.06 in 4.0 mi South 8.1 mph - N/A   Overcast
3:00 AM 69.8 °F 69.8 °F 100% 30.06 in 2.5 mi SSE 10.4 mph - N/A   Overcast
3:06 AM 69.8 °F 69.8 °F 100% 30.06 in 3.0 mi South 9.2 mph - N/A   Overcast
3:14 AM 69.8 °F 69.8 °F 100% 30.06 in 2.5 mi SSE 9.2 mph - N/A   Overcast
3:19 AM 69.8 °F 69.8 °F 100% 30.06 in 2.0 mi South 9.2 mph - N/A   Overcast
3:21 AM 69.8 °F 69.8 °F 100% 30.06 in 2.5 mi South 9.2 mph - N/A   Overcast
3:31 AM 69.8 °F 69.8 °F 100% 30.06 in 2.0 mi SSE 9.2 mph - N/A   Overcast
3:37 AM 69.8 °F 69.8 °F 100% 30.06 in 2.5 mi SSE 11.5 mph - N/A   Overcast
3:43 AM 69.8 °F 69.8 °F 100% 30.06 in 3.0 mi South 10.4 mph - N/A   Overcast
3:51 AM 69.8 °F 69.8 °F 100% 30.06 in 4.0 mi South 8.1 mph - N/A   Light Drizzle
3:54 AM 69.8 °F 69.8 °F 100% 30.06 in 4.0 mi South 8.1 mph - N/A Rain Light Rain
3:55 AM 69.4 °F 69.1 °F 99% 30.06 in 4.0 mi South 8.1 mph - 0.00 in   Overcast
4:05 AM 69.8 °F 69.8 °F 100% 30.06 in 3.0 mi SSE 9.2 mph - N/A   Overcast
4:13 AM 69.8 °F 69.8 °F 100% 30.06 in 3.0 mi South 11.5 mph - N/A   Light Drizzle
4:16 AM 69.8 °F 69.8 °F 100% 30.06 in 3.0 mi South 10.4 mph - N/A   Light Drizzle
4:28 AM 69.8 °F 68.0 °F 94% 30.06 in 4.0 mi SSE 10.4 mph - N/A   Light Drizzle
4:37 AM 69.8 °F 68.0 °F 94% 30.05 in 6.0 mi SSE 10.4 mph - N/A   Overcast
4:40 AM 69.8 °F 68.0 °F 94% 30.05 in 6.0 mi SSE 11.5 mph - N/A   Light Drizzle
4:45 AM 69.8 °F 68.0 °F 94% 30.05 in 7.0 mi SSE 10.4 mph - N/A   Overcast
4:46 AM 69.8 °F 68.0 °F 94% 30.05 in 7.0 mi SSE 10.4 mph - N/A   Light Drizzle
4:52 AM 69.8 °F 68.0 °F 94% 30.05 in 4.0 mi SSE 11.5 mph - N/A   Light Drizzle
4:55 AM 69.1 °F 68.7 °F 99% 30.05 in 3.0 mi SSE 11.5 mph - 0.00 in   Light Drizzle
4:56 AM 69.8 °F 68.0 °F 94% 30.05 in 2.5 mi SSE 10.4 mph - N/A   Light Drizzle
5:00 AM 69.8 °F 68.0 °F 94% 30.05 in 2.0 mi South 11.5 mph - N/A   Light Drizzle
5:07 AM 69.8 °F 68.0 °F 94% 30.06 in 2.0 mi SSE 9.2 mph - N/A   Light Drizzle
5:09 AM 69.8 °F 68.0 °F 94% 30.06 in 2.0 mi SSE 10.4 mph - N/A   Overcast
5:26 AM 69.8 °F 68.0 °F 94% 30.07 in 2.5 mi South 10.4 mph - N/A   Light Drizzle
5:50 AM 69.8 °F 68.0 °F 94% 30.07 in 2.5 mi South 11.5 mph - N/A   Overcast
5:55 AM 68.9 °F 68.5 °F 99% 30.07 in 2.5 mi South 12.7 mph - 0.00 in   Overcast
6:05 AM 69.8 °F 68.0 °F 94% 30.08 in 5.0 mi South 10.4 mph - N/A   Overcast
6:30 AM 69.8 °F 68.0 °F 94% 30.09 in 9.0 mi South 9.2 mph - N/A   Overcast
6:51 AM 69.8 °F 68.0 °F 94% 30.09 in 5.0 mi South 6.9 mph - N/A   Overcast
6:55 AM 68.9 °F 68.5 °F 99% 30.09 in 5.0 mi South 8.1 mph - N/A   Overcast
7:00 AM 69.8 °F 68.0 °F 94% 30.10 in 2.5 mi South 8.1 mph - N/A   Overcast
7:03 AM 69.8 °F 68.0 °F 94% 30.10 in 2.0 mi South 8.1 mph - N/A   Overcast
7:05 AM 69.8 °F 68.0 °F 94% 30.10 in 2.0 mi South 8.1 mph - N/A   Overcast
7:06 AM 69.8 °F 68.0 °F 94% 30.10 in 1.8 mi South 8.1 mph - N/A   Overcast
7:28 AM 69.8 °F 69.8 °F 100% 30.11 in 2.0 mi South 6.9 mph - N/A   Overcast
7:33 AM 69.8 °F 69.8 °F 100% 30.10 in 2.5 mi South 6.9 mph - N/A   Overcast
7:36 AM 69.8 °F 69.8 °F 100% 30.11 in 3.0 mi South 6.9 mph - N/A   Overcast
7:54 AM 69.8 °F 69.8 °F 100% 30.11 in 2.5 mi South 9.2 mph - N/A   Overcast
7:55 AM 69.4 °F 69.1 °F 99% 30.11 in 3.0 mi South 8.1 mph - N/A   Overcast
8:04 AM 69.8 °F 69.8 °F 100% 30.11 in 3.0 mi SSE 6.9 mph - N/A   Overcast
8:16 AM 69.8 °F 69.8 °F 100% 30.11 in 4.0 mi South 8.1 mph - N/A   Overcast
8:55 AM 70.3 °F 70.0 °F 99% 30.13 in 1.5 mi South 9.2 mph - N/A   Mostly Cloudy
9:26 AM 71.6 °F 69.8 °F 94% 30.12 in 3.0 mi South 9.2 mph - N/A Rain Light Rain
9:55 AM 71.2 °F 69.3 °F 93% 30.13 in 3.0 mi SE 11.5 mph - 0.03 in Rain Light Rain
10:25 AM 71.6 °F 69.8 °F 94% 30.10 in 5.0 mi South 9.2 mph 18.4 mph N/A   Overcast
10:55 AM 70.9 °F 69.6 °F 96% 30.11 in 5.0 mi South 12.7 mph 21.9 mph 0.01 in   Overcast
11:55 AM 72.0 °F 69.3 °F 91% 30.08 in 6.0 mi South 13.8 mph - N/A   Overcast
12:55 PM 71.2 °F 68.2 °F 90% 30.07 in 5.0 mi South 13.8 mph - N/A Rain Light Rain
1:33 PM 71.6 °F 68.0 °F 88% 30.06 in 5.0 mi South 13.8 mph - N/A   Overcast
1:55 PM 71.2 °F 68.7 °F 92% 30.09 in 5.0 mi South 13.8 mph - 0.00 in   Overcast
2:55 PM 71.4 °F 68.4 °F 90% 30.08 in 5.0 mi SSE 15.0 mph - N/A   Overcast
3:55 PM 71.2 °F 67.8 °F 89% 30.11 in 6.0 mi South 12.7 mph - N/A   Overcast
4:55 PM 70.2 °F 67.8 °F 92% 30.12 in 7.0 mi South 11.5 mph - N/A   Overcast
5:25 PM 69.8 °F 68.0 °F 94% 30.11 in 7.0 mi South 10.4 mph - N/A   Overcast
5:55 PM 69.8 °F 68.0 °F 94% 30.12 in 7.0 mi SSE 10.4 mph - N/A   Overcast
6:56 PM 69.4 °F 67.8 °F 95% 30.12 in 10.0 mi SSE 9.2 mph - N/A   Overcast
7:56 PM 69.3 °F 67.8 °F 95% 30.10 in 10.0 mi South 10.4 mph - N/A   Overcast
8:55 PM 69.3 °F 67.5 °F 94% 30.11 in 10.0 mi SSE 10.4 mph - N/A   Overcast
9:32 PM 69.8 °F 68.0 °F 94% 30.08 in 10.0 mi SSE 6.9 mph - N/A   Overcast
9:55 PM 69.1 °F 67.3 °F 94% 30.10 in 10.0 mi SSE 9.2 mph - N/A   Overcast
10:55 PM 68.7 °F 67.3 °F 95% 30.09 in 10.0 mi SSE 8.1 mph - N/A   Overcast
11:55 PM 68.7 °F 67.6 °F 96% 30.08 in 10.0 mi SSE 10.4 mph - N/A   Overcast